sat.trackr.live / text

‹ back to catalog

STARLINK-34538

NORAD 64689 · 2025-139AB

PAYLOAD ACTIVE UNKNOWN

§ Identity

Operator
Country
US
Launch date
2025-06-28
Launch site
AFETR
Launch vehicle
Mass (kg)
RCS (m²)

Purposes: comms

External: N2YO · Heavens-Above · Gunter

§ Orbital elements

Epoch: 2026-05-25T05:20:56.107104Z

Period
93.85 min
Inclination
53.1601°
Eccentricity
0.0000951
Mean motion
15.34405891 rev/d
Perigee alt
462.0 km
Apogee alt
463.3 km
Semi-major
6,840.8 km
B*
6.4015e-4
RAAN
130.6997°
Arg perigee
86.9623°
Mean anomaly
273.1488°
Rev number
5,201

§ Raw data

STARLINK-345381 64689U 25139AB  26145.22287161  .00021318  00000+0  64015-3 0  99932 64689  53.1601 130.6997 0000951  86.9623 273.1488 15.34405891 52016

JSON: /api/v1/satellites/64689 · /tle

For live sub-satellite position, see the globe view (requires WebGL).

§ Visibility from observer

Set your observer location to see the next 7 days of passes ≥ 10°. The values pass through the URL so the page stays shareable.

No JS? Fill the form by hand. The geolocation button needs JavaScript.